Miscellaneous Local Product
Issued by NWS Hastings, NE

Home | Current Version | Previous Version | Graphics & Text | Print | Product List | Glossary On
Versions: 1 2 3 4 5 6 7 8 9 10 11 12 13 14 15 16 17 18 19 20 21 22 23 24 25 26 27 28 29 30 31 32 33 34 35 36 37 38 39 40 41 42 43 44 45 46 47 48 49 50
000
AXUS43 KGID 020202
MISGRI

GID CWA HOURLY WEATHER ROUNDUP
NATIONAL WEATHER SERVICE HASTINGS NE
900 PM CDT WED JUL 01 2015

NOTE: "FAIR" INDICATES FEW OR NO CLOUDS BELOW 12,000 FEET WITH NO
SIGNIFICANT WEATHER AND/OR OBSTRUCTIONS TO VISIBILITY.

...SOUTH CENTRAL NEBRASKA...

CITY           SKY/WX    TMP DP  RH WIND       PRES   REMARKS
GRAND ISLAND   CLEAR     79  69  71 CALM      29.89S
HASTINGS       CLEAR     79  69  71 E6        29.89S
KEARNEY        CLEAR     79  68  69 E3        29.91R
ORD            NOT AVBL
YORK           PTCLDY    81  70  69 E9        29.88S
AURORA         CLEAR     79  72  78 E3        29.88S
LEXINGTON      PTCLDY    82  69  63 SE6       29.92R
HOLDREGE       CLEAR     79  67  66 E7        29.91R
HEBRON         CLEAR     82  68  62 NE6       29.86R

...NEBRASKA PANHANDLE...

CITY           SKY/WX    TMP DP  RH WIND       PRES   REMARKS
CHADRON        CLEAR     78  62  57 NE8       29.98R
ALLIANCE       PTCLDY    79  61  53 E10       30.01R
SCOTTSBLUFF    LGT RAIN  69  62  78 E20G32    30.01R
SIDNEY         CLOUDY    80  55  42 E8        30.04S

...WESTERN AND NORTH CENTRAL NEBRASKA...

CITY           SKY/WX    TMP DP  RH WIND       PRES   REMARKS
VALENTINE      CLEAR     76  64  66 N8        29.96R
AINSWORTH      CLEAR     75  64  69 NE3       29.96R
ONEILL         PTCLDY    74  69  83 E10G17    29.93R
BROKEN BOW     CLEAR     81  70  69 SE3       29.91R
IMPERIAL       CLOUDY    80  60  50 E7        29.97R
NORTH PLATTE   PTCLDY    78  59  51 N8        29.94R
MCCOOK         PTCLDY    84  66  54 E6        29.92R

...EASTERN NEBRASKA...

CITY           SKY/WX    TMP DP  RH WIND       PRES   REMARKS
NORFOLK        MOCLDY    74  67  78 E10       29.91R
SO SIOUX CITY  CLOUDY    73  63  70 E9        29.92S
TEKAMAH        PTCLDY    74  67  78 E12       29.91R
COLUMBUS       PTCLDY   N/A N/A N/A E8        29.90S
ALBION         PTCLDY    77  65  67 E8        29.90R
OMAHA EPPLEY   MOCLDY    75  67  76 E13       29.88S
OFFUTT AFB     CLEAR     75  68  80 NE10G21   29.87S
MILLARD        CLEAR     77  69  76 E7        29.88R
LINCOLN        MOCLDY    80  69  69 E9        29.87R
NEBRASKA CITY  MOCLDY    77  66  69 NE10      29.87S
BEATRICE       PTCLDY    81  70  70 NE5       29.86R
FALLS CITY     CLEAR     78  73  84 NE3       29.83R

...NORTHERN KANSAS...

CITY           SKY/WX    TMP DP  RH WIND       PRES   REMARKS
GOODLAND       HVY RAIN  72  62  71 W17G28    30.03R
HILL CITY      MOCLDY    86  56  35 NE8       29.90R
NORTON         CLEAR     81  55  41 E5        29.91R
PHILLIPSBURG   CLEAR     88  64  45 N3        29.89R
SMITH CENTER   CLEAR     81  66  61 NE6       29.88R
HAYS           PTCLDY    88  57  35 NE9       29.87S
RUSSELL        CLEAR     85  64  49 NE7       29.85R
CONCORDIA      PTCLDY    82  70  66 NE7       29.84R
SALINA         CLEAR     90  66  45 N9        29.80R HX  92
TOPEKA         CLEAR     82  76  81 NE7       29.78S



USA.gov is the U.S. government's official web portal to all federal, state and local government web resources and services.